KQ4KX Weather Reports


time (UTC)temp
F
wind
direction
speed
knots
gust
knots
rain 1hr
in
rain 24hr
in
rain mn
in
humidity
%
barometer
mb
20260903110734 78 79 1.7 3.5 0.00 0.00 0.00 100 1013.9
20260903105937 79 78 1.7 3.5 0.00 0.00 0.00 100 1014.0
20260903105704 79 78 1.7 3.5 0.00 0.00 0.00 100 1014.0
20260903104840 79 79 1.7 6.1 0.00 0.00 0.00 100 1013.8
20260903104634 79 79 1.7 6.1 0.00 0.00 0.00 100 1013.8
20260903104338 79 83 1.7 6.1 0.00 0.00 0.00 100 1013.7
20260903104134 79 83 1.7 6.1 0.00 0.00 0.00 100 1013.7
20260903103604 79 80 1.7 5.2 0.00 0.00 0.00 100 1013.6
20260903102036 79 83 2.6 7.0 0.00 0.00 0.00 100 1013.6
20260903100934 79 90 2.6 5.2 0.00 0.00 0.00 99 1013.8
20260903100718 79 89 2.6 6.1 0.00 0.00 0.00 99 1013.7
20260903100434 79 89 2.6 6.1 0.00 0.00 0.00 99 1013.7
20260903095452 79 79 1.7 7.0 0.00 0.00 0.00 99 1013.7
20260903095224 79 79 1.7 7.0 0.00 0.00 0.00 99 1013.7
20260903094834 79 79 1.7 7.0 0.00 0.00 0.00 99 1013.7
20260903093804 79 92 3.5 7.0 0.00 0.00 0.00 99 1013.8
20260903093702 80 80 1.7 7.0 0.00 0.00 0.00 97 1014.1
20260903093657 80 85 1.7 5.2 0.00 0.00 0.00 97 1014.2
20260903093655 80 97 2.6 5.2 0.00 0.00 0.00 97 1014.1
20260903093648 80 102 3.5 6.1 0.00 0.00 0.00 97 1014.2
20260903093234 79 95 3.5 7.0 0.00 0.00 0.00 99 1013.8
20260903092514 79 90 3.5 7.0 0.00 0.00 0.00 99 1013.7
20260903092205 79 90 3.5 7.0 0.00 0.00 0.00 99 1013.7
20260903090947 79 89 3.5 7.0 0.00 0.00 0.00 99 1013.6
20260903090634 79 89 3.5 7.0 0.00 0.00 0.00 99 1013.6
20260903090351 79 90 3.5 7.0 0.00 0.00 0.00 99 1013.6
20260903090104 79 90 3.5 7.0 0.00 0.00 0.00 99 1013.6
20260903085603 79 90 2.6 6.1 0.00 0.00 0.00 99 1013.5
20260903084222 78 105 1.7 3.5 0.00 0.00 0.00 99 1013.5
20260903083934 78 105 1.7 3.5 0.00 0.00 0.00 99 1013.5
20260903083151 79 97 2.6 5.2 0.00 0.00 0.00 99 1013.5
20260903082904 79 97 2.6 5.2 0.00 0.00 0.00 99 1013.5
20260903082630 79 92 2.6 6.1 0.00 0.00 0.00 99 1013.4
20260903082404 79 92 2.6 6.1 0.00 0.00 0.00 99 1013.4
20260903082126 79 86 1.7 6.1 0.00 0.00 0.00 99 1013.5
20260903081904 79 86 1.7 6.1 0.00 0.00 0.00 99 1013.5
20260903081334 79 89 1.7 3.5 0.00 0.00 0.00 99 1013.5
20260903081040 79 90 1.7 3.5 0.00 0.00 0.00 99 1013.5
20260903080804 79 90 1.7 3.5 0.00 0.00 0.00 99 1013.5
20260903080036 79 96 2.6 6.1 0.00 0.00 0.00 99 1013.7
20260903075734 79 96 2.6 6.1 0.00 0.00 0.00 99 1013.7
20260903075508 79 87 1.7 6.1 0.00 0.00 0.00 99 1013.8
20260903075234 79 87 1.7 6.1 0.00 0.00 0.00 99 1013.8
20260903075004 79 84 1.7 6.1 0.00 0.00 0.00 99 1013.8
20260903074704 79 84 1.7 6.1 0.00 0.00 0.00 99 1013.8
20260903074446 79 81 0.9 2.6 0.00 0.00 0.00 99 1013.8
20260903074134 79 81 0.9 2.6 0.00 0.00 0.00 99 1013.8
20260903073634 79 80 0.9 1.7 0.00 0.00 0.00 98 1013.8
20260903072604 79 90 0.9 2.6 0.00 0.00 0.00 98 1014.0
20260903070706 80 84 0.9 2.6 0.00 0.00 0.00 98 1013.9
20260903070404 80 84 0.9 2.6 0.00 0.00 0.00 98 1013.9
20260903065646 80 81 0.9 2.6 0.00 0.00 0.00 97 1014.2
20260903065334 80 81 0.9 2.6 0.00 0.00 0.00 97 1014.2
20260903064834 80 81 1.7 3.5 0.00 0.00 0.00 97 1014.2
20260903064334 80 87 1.7 5.2 0.00 0.00 0.00 97 1014.2
20260903063804 80 88 1.7 5.2 0.00 0.00 0.00 97 1014.1
20260903063447 80 80 1.7 7.0 0.00 0.00 0.00 97 1014.1
20260903063235 80 80 1.7 7.0 0.00 0.00 0.00 97 1014.1
20260903061829 80 85 1.7 5.2 0.00 0.00 0.00 97 1014.2
20260903061634 80 85 1.7 5.2 0.00 0.00 0.00 97 1014.2
20260903061104 80 97 2.6 5.2 0.00 0.00 0.00 97 1014.1
20260903060604 80 102 3.5 6.1 0.00 0.00 0.00 97 1014.2
20260903054740 77 23 0.9 1.7 0.00 0.00 0.00 99 1015.5
20260903054734 76 98 0.0 0.9 0.00 0.00 0.00 99 1016.2
20260903054732 92 98 4.3 9.6 0.00 0.33 0.00 71 1017.0
20260903052934 80 106 4.3 7.8 0.00 0.00 0.00 97 1014.5
20260903052807 80 104 4.3 7.8 0.00 0.00 0.00 96 1014.6
20260903052403 80 104 4.3 7.8 0.00 0.00 0.00 96 1014.6
20260903051646 80 99 4.3 7.8 0.00 0.00 0.00 96 1014.7
20260903051334 80 99 4.3 7.8 0.00 0.00 0.00 96 1014.7
20260903050804 80 100 4.3 7.8 0.00 0.00 0.00 96 1014.8
20260903050234 80 98 5.2 7.8 0.00 0.00 0.00 96 1014.9
20260903045704 80 96 6.1 8.7 0.00 0.00 0.00 96 1014.9
20260903044633 80 102 5.2 8.7 0.00 0.00 0.00 96 1015.0
20260903044134 80 102 5.2 8.7 0.00 0.00 0.00 96 1015.0
20260903043922 80 101 5.2 7.8 0.00 0.00 0.00 96 1015.1
20260903043634 80 101 5.2 7.8 0.00 0.00 0.00 96 1015.1
20260903043134 80 103 5.2 8.7 0.00 0.00 0.00 96 1015.1
20260903042828 80 102 6.1 9.6 0.00 0.00 0.00 96 1015.1
20260903042633 80 102 6.1 9.6 0.00 0.00 0.00 96 1015.1
20260903041035 81 100 4.3 7.8 0.00 0.00 0.00 95 1015.3
20260903035720 81 102 6.1 9.6 0.00 0.00 0.00 96 1015.1
20260903035506 81 102 6.1 9.6 0.00 0.00 0.00 96 1015.1
20260903034711 81 98 7.0 9.6 0.00 0.00 0.00 95 1015.0
20260903034434 81 98 7.0 9.6 0.00 0.00 0.00 95 1015.0
20260903033704 81 92 5.2 9.6 0.00 0.00 0.00 95 1015.1
20260903033334 81 92 5.2 9.6 0.00 0.00 0.00 95 1015.1
20260903032234 80 90 4.3 7.8 0.00 0.00 0.00 95 1015.3
20260903031950 80 94 4.3 7.8 0.00 0.00 0.00 96 1015.2
20260903031704 80 94 4.3 7.8 0.00 0.00 0.00 96 1015.2
20260903030634 80 84 2.6 7.0 0.00 0.00 0.00 96 1015.2
20260903030447 80 83 2.6 6.1 0.00 0.00 0.00 96 1015.4
20260903030134 80 83 2.6 6.1 0.00 0.00 0.00 96 1015.4
20260903023329 80 54 0.0 1.7 0.00 0.00 0.00 97 1015.3
20260903023104 80 54 0.0 1.7 0.00 0.00 0.00 97 1015.3
20260903020434 80 54 0.9 1.7 0.00 0.00 0.00 97 1015.2
20260903015711 80 51 0.9 1.7 0.00 0.00 0.00 97 1015.3
20260903015434 80 51 0.9 1.7 0.00 0.00 0.00 97 1015.3
20260903014713 80 46 0.9 1.7 0.00 0.00 0.00 96 1015.0
20260903014334 80 46 0.9 1.7 0.00 0.00 0.00 96 1015.0
20260903014114 80 46 0.9 1.7 0.00 0.00 0.00 96 1014.9
20260903013834 80 46 0.9 1.7 0.00 0.00 0.00 96 1014.9
20260903012956 80 45 0.9 2.6 0.00 0.00 0.00 96 1015.0
20260903012734 80 45 0.9 2.6 0.00 0.00 0.00 96 1015.0
20260903010922 80 85 0.9 0.9 0.00 0.00 0.00 94 1014.7
20260903010634 80 85 0.9 0.9 0.00 0.00 0.00 94 1014.7
20260903005825 80 66 0.9 1.7 0.00 0.00 0.00 94 1014.4
20260903005605 80 66 0.9 1.7 0.00 0.00 0.00 94 1014.4
20260903004357 80 29 0.9 2.6 0.00 0.00 0.00 94 1014.2
20260903003934 80 29 0.9 2.6 0.00 0.00 0.00 94 1014.2
20260903002834 80 40 0.9 2.6 0.00 0.00 0.00 94 1014.3
20260903002333 80 55 0.9 1.7 0.00 0.00 0.00 95 1014.3
20260903001834 80 74 0.9 2.6 0.00 0.00 0.00 95 1014.3
20260903001334 80 65 0.9 2.6 0.00 0.00 0.00 95 1014.4
20260903000804 80 50 0.9 1.7 0.00 0.00 0.00 95 1014.4
20260902233821 80 45 0.9 1.7 0.00 0.00 0.00 92 1014.5
20260902233634 80 45 0.9 1.7 0.00 0.00 0.00 92 1014.5
20260902233134 80 41 0.9 1.7 0.00 0.00 0.00 91 1014.4
20260902231004 80 51 0.9 1.7 0.00 0.00 0.00 90 1014.0
20260902230433 80 60 0.0 0.9 0.00 0.00 0.00 90 1014.2
20260902225934 80 89 0.0 0.9 0.00 0.00 0.00 90 1014.1
20260902224904 80 90 0.9 2.6 0.00 0.00 0.00 90 1013.7
20260902224628 80 78 0.9 1.7 0.00 0.00 0.00 90 1013.6
20260902224405 80 78 0.9 1.7 0.00 0.00 0.00 90 1013.6
20260902223708 80 44 0.9 2.6 0.00 0.00 0.00 90 1014.0
20260902223334 80 44 0.9 2.6 0.00 0.00 0.00 90 1014.0
20260902223151 80 15 0.9 2.6 0.00 0.00 0.00 90 1014.3
20260902222834 80 15 0.9 2.6 0.00 0.00 0.00 90 1014.3
20260902220805 81 75 1.7 6.1 0.00 0.00 0.00 92 1014.1
20260902220037 81 44 1.7 2.6 0.00 0.00 0.00 92 1013.9
20260902215734 81 44 1.7 2.6 0.00 0.00 0.00 92 1013.9
20260902215234 82 42 1.7 2.6 0.00 0.00 0.00 92 1013.6
20260902215121 82 34 1.7 2.6 0.00 0.00 0.00 90 1013.7
20260902214733 82 34 1.7 2.6 0.00 0.00 0.00 90 1013.7
20260902214234 82 29 1.7 4.3 0.00 0.00 0.00 90 1013.8
20260902212733 82 28 2.6 7.0 0.00 0.00 0.00 91 1013.3
20260902212328 82 33 1.7 7.0 0.00 0.00 0.00 90 1013.4
20260902212203 82 33 1.7 7.0 0.00 0.00 0.00 90 1013.4
20260902211103 81 345 2.6 4.3 0.00 0.00 0.00 91 1013.9
20260902205003 82 331 2.6 6.1 0.00 0.00 0.00 85 1014.3
20260902204700 82 326 3.5 7.0 0.00 0.00 0.00 85 1014.0
20260902204433 82 326 3.5 7.0 0.00 0.00 0.00 85 1014.0
20260902203658 84 352 2.6 5.2 0.00 0.00 0.00 82 1013.6
20260902203334 84 352 2.6 5.2 0.00 0.00 0.00 82 1013.6
20260902203117 85 353 2.6 4.3 0.00 0.00 0.00 83 1013.9
20260902202833 85 353 2.6 4.3 0.00 0.00 0.00 83 1013.9
20260902202333 86 4 2.6 7.8 0.00 0.00 0.00 83 1013.9
20260902201011 88 82 6.1 11.3 0.00 0.00 0.00 79 1013.6
20260902200734 88 82 6.1 11.3 0.00 0.00 0.00 79 1013.6
20260902195633 91 94 5.2 13.9 0.00 0.00 0.00 75 1013.6
20260902195437 93 102 2.6 8.7 0.00 0.00 0.00 71 1013.6
20260902195133 93 102 2.6 8.7 0.00 0.00 0.00 71 1013.6
20260902194826 94 108 1.7 5.2 0.00 0.00 0.00 71 1013.6
20260902194633 94 108 1.7 5.2 0.00 0.00 0.00 71 1013.6
20260902194133 93 94 1.7 3.5 0.00 0.00 0.00 72 1013.6
20260902193816 94 72 0.9 2.6 0.00 0.00 0.00 69 1013.6
20260902193633 94 72 0.9 2.6 0.00 0.00 0.00 69 1013.6
20260902193103 94 69 1.7 3.5 0.00 0.00 0.00 70 1013.7
20260902190003 93 46 1.7 3.5 0.00 0.00 0.00 72 1014.2
20260902185003 93 91 2.6 5.2 0.00 0.00 0.00 73 1014.4
20260902184003 92 3 0.9 2.6 0.00 0.00 0.00 71 1014.6
20260902182933 91 87 1.7 3.5 0.00 0.00 0.00 75 1014.7
20260902182806 91 88 1.7 3.5 0.00 0.00 0.00 73 1014.8
20260902182433 91 88 1.7 3.5 0.00 0.00 0.00 73 1014.8
20260902181403 90 89 1.7 5.2 0.00 0.00 0.00 76 1015.0
20260902181211 89 89 1.7 5.2 0.00 0.00 0.00 77 1015.0
20260902180903 89 89 1.7 5.2 0.00 0.00 0.00 77 1015.0
20260902180333 89 82 1.7 3.5 0.00 0.00 0.00 77 1015.0
20260902180218 89 79 0.9 3.5 0.00 0.00 0.00 78 1015.1
20260902175833 89 79 0.9 3.5 0.00 0.00 0.00 78 1015.1
20260902170003 90 77 1.7 6.1 0.00 0.00 0.00 75 1015.8
20260902165503 90 64 1.7 3.5 0.00 0.00 0.00 74 1015.8
20260902165003 91 55 1.7 3.5 0.00 0.00 0.00 75 1015.9
20260902164503 91 28 1.7 3.5 0.00 0.00 0.00 76 1015.8
20260902163933 91 24 1.7 4.3 0.00 0.00 0.00 78 1016.0
20260902163405 91 45 1.7 4.3 0.00 0.00 0.00 77 1016.0
20260902163300 90 63 1.7 4.3 0.00 0.00 0.00 80 1016.1
20260902162903 90 63 1.7 4.3 0.00 0.00 0.00 80 1016.1
20260902161903 89 79 2.6 6.1 0.00 0.00 0.00 81 1016.3
20260902160903 88 18 1.7 4.3 0.00 0.00 0.00 81 1016.5
20260902160210 88 13 2.6 3.5 0.00 0.00 0.00 83 1016.5
20260902155903 88 13 2.6 3.5 0.00 0.00 0.00 83 1016.5
20260902155404 88 18 1.7 3.5 0.00 0.00 0.00 82 1016.5
20260902155144 87 21 1.7 2.6 0.00 0.00 0.00 84 1016.6
20260902154833 87 21 1.7 2.6 0.00 0.00 0.00 84 1016.6
20260902154333 87 51 1.7 2.6 0.00 0.00 0.00 81 1016.8
20260902152515 88 28 1.7 3.5 0.00 0.00 0.00 83 1016.9
20260902152233 88 28 1.7 3.5 0.00 0.00 0.00 83 1016.9
20260902152015 88 27 1.7 3.5 0.00 0.00 0.00 83 1016.9
20260902151733 88 27 1.7 3.5 0.00 0.00 0.00 83 1016.9
20260902145633 86 24 1.7 3.5 0.00 0.00 0.00 87 1016.8
20260902144633 86 57 1.7 3.5 0.00 0.00 0.00 87 1016.8
20260902143634 84 51 1.7 5.2 0.00 0.00 0.00 90 1016.6
20260902141817 84 49 1.7 2.6 0.00 0.00 0.00 92 1016.6
20260902141604 84 49 1.7 2.6 0.00 0.00 0.00 92 1016.6
20260902141103 84 32 1.7 2.6 0.00 0.00 0.00 92 1016.7
20260902140003 83 70 1.7 5.2 0.00 0.00 0.00 93 1016.6
20260902135759 82 76 1.7 5.2 0.00 0.00 0.00 93 1016.7
20260902135434 82 76 1.7 5.2 0.00 0.00 0.00 93 1016.7
20260902135216 82 62 1.7 3.5 0.00 0.00 0.00 94 1016.6
20260902134933 82 62 1.7 3.5 0.00 0.00 0.00 94 1016.6
20260902133833 82 41 1.7 3.5 0.00 0.00 0.00 95 1016.6
20260902133333 82 38 1.7 3.5 0.00 0.00 0.00 95 1016.7
20260902132834 82 27 1.7 2.6 0.00 0.00 0.00 95 1016.8
20260902131948 81 32 1.7 3.5 0.00 0.00 0.00 96 1016.7
20260902131734 81 32 1.7 3.5 0.00 0.00 0.00 96 1016.7
20260902131235 81 24 1.7 2.6 0.00 0.00 0.00 97 1016.6
20260902125633 80 23 1.7 3.5 0.00 0.00 0.00 98 1016.6
20260902125103 80 29 1.7 3.5 0.00 0.00 0.00 98 1016.6
20260902124604 80 21 1.7 3.5 0.00 0.00 0.00 98 1016.6
20260902124331 79 21 1.7 2.6 0.00 0.00 0.00 99 1016.6
20260902124033 79 21 1.7 2.6 0.00 0.00 0.00 99 1016.6
20260902123533 79 24 1.7 2.6 0.00 0.00 0.00 99 1016.7
20260902123004 79 21 1.7 2.6 0.00 0.00 0.00 100 1016.8
20260902122710 79 18 1.7 2.6 0.00 0.00 0.00 100 1016.7
20260902122433 79 18 1.7 2.6 0.00 0.00 0.00 100 1016.7
20260902121933 78 20 0.9 2.6 0.00 0.00 0.00 100 1016.7
20260902121144 78 14 1.7 2.6 0.00 0.00 0.00 100 1016.6
20260902120905 78 14 1.7 2.6 0.00 0.00 0.00 100 1016.6
20260902114537 78 22 0.9 1.7 0.00 0.00 0.00 100 1016.4
20260902114234 78 22 0.9 1.7 0.00 0.00 0.00 100 1016.4
20260902113953 78 20 0.9 1.7 0.00 0.00 0.00 100 1016.3
20260902113733 78 20 0.9 1.7 0.00 0.00 0.00 100 1016.3